Regional Weather Roundup
Issued by NWS

Home | Current Version | Previous Version | Graphics & Text | Print | Product List | Glossary Off
Versions: 1 2 3 4 5 6 7 8 9 10 11 12 13 14 15 16 17 18 19 20 21 22 23 24 25 26 27 28 29 30 31 32 33 34 35 36 37 38 39 40 41 42 43 44 45 46 47 48 49 50

000
ASUS43 KMKX 241400
RWRWI

WISCONSIN REGIONAL WEATHER ROUNDUP
NATIONAL WEATHER SERVICE MILWAUKEE/SULLIVAN WI
900 AM CDT THU APR 24 2014

NOTE: "FAIR" INDICATES FEW OR NO CLOUDS BELOW 12,000 FEET WITH NO
SIGNIFICANT WEATHER AND/OR OBSTRUCTIONS TO VISIBILITY.

WIZ001-002-006>008-014>016-023>028-241500-
NORTHWEST WISCONSIN

CITY           SKY/WX    TMP DP  RH WIND       PRES   REMARKS
SUPERIOR ARPT  CLOUDY    34  34  99 NE7       29.94F FOG     WCI  28
ASHLAND        CLOUDY    36  35  96 E6        29.98F WCI  31
HAYWARD        CLOUDY    36  32  85 E10       29.91F WCI  28
SIREN          RAIN      38  37  96 E7        29.86F WCI  32
RICE LAKE      LGT RAIN  37  35  94 E15       29.88F WCI  28
LADYSMITH      LGT RAIN  37  33  87 E13       29.94F WCI  28
EAU CLAIRE     NOT AVBL
MENOMONIE      LGT RAIN  38  37  99 E14G24    29.85F WCI  29
NEW RICHMOND   LGT RAIN  38  38  97 E16G24    29.82F WCI  30
OSCEOLA        LGT RAIN  40  39  97 E16G22    29.84F WCI  32
$$

WIZ003>005-009-010-017-018-241500-
NORTH CENTRAL WISCONSIN

CITY           SKY/WX    TMP DP  RH WIND       PRES   REMARKS
WOODRUFF       CLOUDY    37  34  90 SE10      29.98F WCI  29
RHINELANDER    FLURRIES  35  26  69 E12       29.98F WCI  27
EAGLE RIVER    CLOUDY    36  25  65 SE9       29.99F WCI  29
LAND O LAKES   CLOUDY    39  30  70 SE5       30.00F
PHILLIPS       CLOUDY    34  29  83 SE9       29.96S WCI  27
TOMAHAWK       LGT SNOW  33  28  81 CALM      29.97F
MEDFORD        LGT RAIN  34  31  87 E10       29.94F WCI  26
MERRILL        CLOUDY    38  24  57 SE10      29.98F WCI  31
$$

WIZ029-030-035-036-043>047-241500-
CENTRAL WISCONSIN

CITY           SKY/WX    TMP DP  RH WIND       PRES   REMARKS
WAUSAU         MIX PCPN  37  29  72 SE10      29.97F WCI  30
MOSINEE        CLOUDY    36  34  93 E8        29.99F WCI  29
MARSHFIELD     RAIN      37  34  89 E16       29.95S FOG     WCI  28
STEVENS POINT  RAIN      34  32  91 E8        30.00S WCI  28
WAUPACA        RAIN      39  34  81 E6        30.02S WCI  35
WAUTOMA        NOT AVBL
WISC RAPIDS    LGT RAIN  38  37  97 E12       29.98F WCI  30
CAMP DOUGLAS   NOT AVBL
$$

WIZ011>013-019>022-031-037>040-048>050-241500-
NORTHEAST WISCONSIN

CITY           SKY/WX    TMP DP  RH WIND       PRES   REMARKS
ANTIGO         CLOUDY    37  21  52 SE12      30.00S WCI  29
STURGEON BAY   CLOUDY    39  25  56 SE9       30.07F WCI  33
GREEN BAY      LGT RAIN  41  31  67 E5        30.05R
MANITOWOC      NOT AVBL
APPLETON       LGT RAIN  39  36  87 SE8       30.02S FOG     WCI  34
CLINTONVILLE   LGT RAIN  37  32  81 E6        30.03S WCI  33
OSHKOSH        LGT RAIN  42  35  76 E12       30.01S
$$

WIZ032>034-041-042-053>061-241500-
SOUTHWEST WISCONSIN

CITY           SKY/WX    TMP DP  RH WIND       PRES   REMARKS
LA CROSSE      RAIN      41  38  89 SE12G21   29.86F FOG
SPARTA         NOT AVBL
VIROQUA        CLOUDY    37  37 100 E15       29.86F WCI  28
BOSCOBEL       CLOUDY    41  37  86 NE9       29.86F
PRAIRIE DU CHI CLOUDY    45  36  71 E16G22    29.82F
PLATTEVILLE    CLOUDY    43  36  77 E20G26    29.85F
$$

WIZ056-057-062-063-064-067-068-241500-
SOUTH CENTRAL WISCONSIN

CITY           SKY/WX    TMP DP  RH WIND       PRES   REMARKS
BARABOO/DELLS  LGT RAIN  39  35  87 E9        29.95S WCI  32
LONE ROCK      NOT AVBL
WATERTOWN      CLOUDY    42  34  73 E10       29.96S
MADISON        LGT RAIN  43  36  76 E13       29.93F
MIDDLETON      CLOUDY    43  35  73 SE12      29.93F
MONROE         CLOUDY    44  34  67 E10       29.91R
JANESVILLE     CLOUDY    48  34  57 SE15G23   29.92F
$$

WIZ051-052-058>065-066-070>072-241500-
SOUTHEAST WISCONSIN

CITY           SKY/WX    TMP DP  RH WIND       PRES   REMARKS
MILWAUKEE      CLOUDY    43  34  70 SE18      30.00F
WAUKESHA       CLOUDY    39  34  81 E10       29.99F WCI  32
MILWAUKEE/TIMM NOT AVBL
RACINE         CLOUDY    43  35  73 E17G23    30.01F
BURLINGTON     CLOUDY    42  35  75 E12G17    29.98F
KENOSHA        CLOUDY    45  34  65 SE16G22   29.99F
FOND DU LAC    CLOUDY    42  34  73 SE12G20   30.00F
SHEBOYGAN      LGT RAIN  40  34  79 SE8       30.03F WCI  34
WEST BEND      CLOUDY    37  32  81 E7        30.01S WCI  32
JUNEAU         CLOUDY    40  32  71 E16G23    29.97F WCI  32
$$

LSZ147-162-241500-
LAKE SUPERIOR

STATION/POSITION TIME  TEMP    WIND        PRES    WAVE
                       AIR SEA DIR/SP/G            HT/PER
                 (UTC) (F)     (DEG/KT/KT) (MB)    (FT/S)
DEVILS ISLAND    1300   35      90/  9/ 10 1017.2F
PORT WING        1300   39      70/  3/  4 1014.9
SAXON HARBOR     1300           CALM  /  2 1015.6S
$$

LMZ867-665-643>646-241500-
LAKE MICHIGAN

STATION/POSITION TIME  TEMP    WIND        PRES    WAVE
                       AIR SEA DIR/SP/G            HT/PER
                 (UTC) (F)     (DEG/KT/KT) (MB)    (FT/S)
NORTHPORT PIER   1300   36     110/  9/ 13 1019.0F
SISTER BAY       1308   40     140/ 10/ 16   N/A
KEWAUNEE LAKESHO 1300   37     110/  5/  8 1018.5F
SHEBOYGAN LAKESH 1300   40     130/ 12/ 13 1018.3S
PORT WASHINGTON  1340   39      80/  9/ 13 1017.3F
MILWAUKEE LAKESH 1300   38      80/ 14/ 16   N/A
KENOSHA   LAKESH 1300   40     100/ 18/ 21   N/A
$$

TC  - TEMPERATURE IN CELSIUS
VSB - VISIBILITY IN STATUTE MILES
WCI - WIND CHILL INDEX
HX  - HEAT INDEX




USA.gov is the U.S. government's official web portal to all federal, state and local government web resources and services.